Tracking 32936 objects as of 17-Jan-2026
HD Live streaming from Space Station
objects crossing your sky now

NADEZHDA 6

Track NADEZHDA 6 now!
10-day predictions
NADEZHDA 6 is classified as:


NORAD ID: 26384
Int'l Code: 2000-033A
Perigee: 654.7 km
Apogee: 675.0 km
Inclination: 97.8 °
Period: 97.9 minutes
Semi major axis: 7035 km
RCS: 1.836 m2 (large)
Launch date: June 28, 2000
Source: Commonwealth of Independent States (former USSR) (CIS)
Launch site: PLESETSK MISSILE AND SPACE COMPLEX (PKMTR)

Search and rescue; part of COSPAS/SARSAT fleet.
Your satellite tracking list
Your tracking list is empty




NASA's NSSDC Master Catalog

Two Line Element Set (TLE):
1 26384U 00033A   26016.49149657  .00000597  00000-0  10480-3 0  9996
2 26384  97.8241 357.4627 0014441 116.2429 244.0264 14.71046718365880
Source of the keplerian elements: AFSPC